Darstellungsparameter: Aktuell verwendete Einstellungen:
Skalierung der Graphiken ... ?
xyx+y,   Skalierungsfaktor:      Skalierung: Modus: x, Faktor: 1
Darstellungszeitraum ... ?
Vom - - bis: - -   Zeitraum: 26.02.2021 - 28.02.2021
Min/Max/Avg-Anzeige ... ?
Zeige MMA aktuell
Zeige MMA Monat
Zeige MMA alles
Zeige --A aktuell
Zeige --A Monat
Zeige --A alles
Keine MMA-Anzeige
MMA:
Keine MMA-Graphiken
MMA-Basis: 26.02.2021 - 28.02.2021
Quicknavigation für Darstellung... ?
Tage:      1T, 2T, 3T, 5T -1T -2T -3T -5T +1T +2T +3T +5T
Wochen: 1W, 2W, 3W -1W -2W -3W +1W +2W +3W
Monate: 1M, 3M, 6M -1M -3M -6M +1M +3M +6M
Jahre:    1J, 3J, 5J, 10J -1J -3J -5J -10J +1J +3J +5J +10J
Nutze für die Darstellung ... ?
Originaldaten oder Mittelwerte auf ...
Stundenbasis Tagesbasis Wochenbasis
Monatsbasis Jahresbasis      Datenbasis: Original-Daten
Darstellen als:
Statistik (Auto) Statistik J:M      Darstellung:
Zur Graphik,    zurück zur Übersicht aller Sensoren.
 
Tabellarische Datenbersicht: ?
 
Sensor: Nr:Datum:Temp:Feuchte:Taupunkt:
Aussen-T/F 1 26-02-2021 00:00:00 6.7 C 87 % 4.69 C
2 26-02-2021 00:05:00 6.8 C 87 % 4.79 C
3 26-02-2021 00:10:00 6.7 C 87 % 4.69 C
4 26-02-2021 00:15:00 6.7 C 87 % 4.69 C
5 26-02-2021 00:20:00 6.7 C 87 % 4.69 C
6 26-02-2021 00:25:00 6.7 C 87 % 4.69 C
7 26-02-2021 00:30:00 6.7 C 87 % 4.69 C
8 26-02-2021 00:35:00 6.6 C 87 % 4.6 C
9 26-02-2021 00:40:00 6.5 C 87 % 4.5 C
10 26-02-2021 00:45:00 6.4 C 88 % 4.56 C
11 26-02-2021 00:50:00 6.4 C 88 % 4.56 C
12 26-02-2021 00:55:00 6.4 C 88 % 4.56 C
13 26-02-2021 01:00:00 6.5 C 89 % 4.82 C
14 26-02-2021 01:05:00 6.5 C 89 % 4.82 C
15 26-02-2021 01:10:00 6.5 C 89 % 4.82 C
16 26-02-2021 01:15:00 6.5 C 89 % 4.82 C
17 26-02-2021 01:20:00 6.5 C 89 % 4.82 C
18 26-02-2021 01:25:00 6.5 C 89 % 4.82 C
19 26-02-2021 01:30:00 6.4 C 88 % 4.56 C
20 26-02-2021 01:35:00 6.3 C 88 % 4.46 C
21 26-02-2021 01:40:00 6.2 C 88 % 4.36 C
22 26-02-2021 01:45:00 6.3 C 90 % 4.78 C
23 26-02-2021 01:50:00 6.4 C 90 % 4.88 C
24 26-02-2021 01:55:00 6.5 C 89 % 4.82 C
25 26-02-2021 02:00:00 6.4 C 89 % 4.72 C
Sensor: Nr:Datum:Temp:Feuchte:Taupunkt:
Aussen-T/F 26 26-02-2021 02:05:00 6.4 C 89 % 4.72 C
27 26-02-2021 02:10:00 6.3 C 89 % 4.62 C
28 26-02-2021 02:15:00 6.3 C 89 % 4.62 C
29 26-02-2021 02:20:00 6.3 C 89 % 4.62 C
30 26-02-2021 02:25:00 6.3 C 90 % 4.78 C
31 26-02-2021 02:30:00 6.3 C 90 % 4.78 C
32 26-02-2021 02:35:00 6.4 C 90 % 4.88 C
33 26-02-2021 02:40:00 6.4 C 90 % 4.88 C
34 26-02-2021 02:45:00 6.4 C 90 % 4.88 C
35 26-02-2021 02:50:00 6.5 C 90 % 4.98 C
36 26-02-2021 02:55:00 6.6 C 90 % 5.08 C
37 26-02-2021 03:00:00 6.8 C 91 % 5.44 C
38 26-02-2021 03:05:00 6.8 C 90 % 5.28 C
39 26-02-2021 03:10:00 6.9 C 90 % 5.38 C
40 26-02-2021 03:15:00 6.9 C 89 % 5.22 C
41 26-02-2021 03:20:00 7 C 89 % 5.31 C
42 26-02-2021 03:25:00 7 C 89 % 5.31 C
43 26-02-2021 03:30:00 7.1 C 89 % 5.41 C
44 26-02-2021 03:35:00 7.1 C 89 % 5.41 C
45 26-02-2021 03:40:00 7.1 C 88 % 5.25 C
46 26-02-2021 03:45:00 7.1 C 88 % 5.25 C
47 26-02-2021 03:50:00 7.1 C 88 % 5.25 C
48 26-02-2021 03:55:00 7.1 C 88 % 5.25 C
49 26-02-2021 04:00:00 7.1 C 88 % 5.25 C
50 26-02-2021 04:05:00 7.1 C 88 % 5.25 C
Sensor: Nr:Datum:Temp:Feuchte:Taupunkt:
Aussen-T/F 51 26-02-2021 04:10:00 7.2 C 89 % 5.51 C
52 26-02-2021 04:15:00 7.3 C 89 % 5.61 C
53 26-02-2021 04:20:00 7.3 C 88 % 5.45 C
54 26-02-2021 04:25:00 7.3 C 88 % 5.45 C
55 26-02-2021 04:30:00 7.2 C 88 % 5.35 C
56 26-02-2021 04:35:00 7.2 C 88 % 5.35 C
57 26-02-2021 04:40:00 7.2 C 88 % 5.35 C
58 26-02-2021 04:45:00 7.2 C 88 % 5.35 C
59 26-02-2021 04:50:00 7.3 C 88 % 5.45 C
60 26-02-2021 04:55:00 7.3 C 89 % 5.61 C
61 26-02-2021 05:00:00 7.4 C 89 % 5.71 C
62 26-02-2021 05:05:00 7.5 C 89 % 5.81 C
63 26-02-2021 05:10:00 7.6 C 89 % 5.91 C
64 26-02-2021 05:15:00 7.6 C 88 % 5.74 C
65 26-02-2021 05:20:00 7.7 C 88 % 5.84 C
66 26-02-2021 05:25:00 7.7 C 88 % 5.84 C
67 26-02-2021 05:30:00 7.7 C 87 % 5.68 C
68 26-02-2021 05:35:00 7.7 C 88 % 5.84 C
69 26-02-2021 05:40:00 7.7 C 87 % 5.68 C
70 26-02-2021 05:45:00 7.7 C 87 % 5.68 C
71 26-02-2021 05:50:00 7.7 C 88 % 5.84 C
72 26-02-2021 05:55:00 7.7 C 87 % 5.68 C
73 26-02-2021 06:00:00 7.7 C 88 % 5.84 C
74 26-02-2021 06:05:00 7.8 C 88 % 5.94 C
75 26-02-2021 06:10:00 7.8 C 88 % 5.94 C
Sensor: Nr:Datum:Temp:Feuchte:Taupunkt:
Aussen-T/F 76 26-02-2021 06:15:00 7.8 C 87 % 5.78 C
77 26-02-2021 06:20:00 7.8 C 87 % 5.78 C
78 26-02-2021 06:25:00 7.8 C 87 % 5.78 C
79 26-02-2021 06:30:00 7.8 C 87 % 5.78 C
80 26-02-2021 06:35:00 7.7 C 87 % 5.68 C
81 26-02-2021 06:40:00 8.1 C 91 % 6.72 C
82 26-02-2021 06:45:00 8.6 C 92 % 7.38 C
83 26-02-2021 06:50:00 8.7 C 92 % 7.47 C
84 26-02-2021 06:55:00 8.8 C 91 % 7.41 C
85 26-02-2021 07:00:00 8.8 C 90 % 7.25 C
86 26-02-2021 07:05:00 8.7 C 90 % 7.15 C
87 26-02-2021 07:10:00 8.7 C 90 % 7.15 C
88 26-02-2021 07:15:00 8.6 C 90 % 7.06 C
89 26-02-2021 07:20:00 8.5 C 90 % 6.96 C
90 26-02-2021 07:25:00 8.4 C 90 % 6.86 C
91 26-02-2021 07:30:00 8.3 C 90 % 6.76 C
92 26-02-2021 07:35:00 8.3 C 90 % 6.76 C
93 26-02-2021 07:40:00 8.2 C 90 % 6.66 C
94 26-02-2021 07:45:00 8.1 C 90 % 6.56 C
95 26-02-2021 07:50:00 8 C 90 % 6.46 C
96 26-02-2021 07:55:00 8 C 90 % 6.46 C
97 26-02-2021 08:00:00 7.9 C 90 % 6.36 C
98 26-02-2021 08:05:00 7.9 C 90 % 6.36 C
99 26-02-2021 08:10:00 7.8 C 90 % 6.27 C
100 26-02-2021 08:15:00 7.8 C 90 % 6.27 C
Sensor: Nr:Datum:Temp:Feuchte:Taupunkt:
Aussen-T/F 101 26-02-2021 08:20:00 7.8 C 90 % 6.27 C
102 26-02-2021 08:25:00 7.8 C 90 % 6.27 C
103 26-02-2021 08:30:00 7.8 C 90 % 6.27 C
104 26-02-2021 08:35:00 7.8 C 90 % 6.27 C
105 26-02-2021 08:40:00 7.8 C 90 % 6.27 C
106 26-02-2021 08:45:00 7.8 C 90 % 6.27 C
107 26-02-2021 08:50:00 7.8 C 91 % 6.43 C
108 26-02-2021 08:55:00 7.6 C 91 % 6.23 C
109 26-02-2021 09:00:00 7.5 C 91 % 6.13 C
110 26-02-2021 09:05:00 7.4 C 91 % 6.03 C
111 26-02-2021 09:10:00 7.3 C 91 % 5.93 C
112 26-02-2021 09:15:00 7.3 C 91 % 5.93 C
113 26-02-2021 09:20:00 7.2 C 91 % 5.83 C
114 26-02-2021 09:25:00 7 C 90 % 5.48 C
115 26-02-2021 09:30:00 6.9 C 90 % 5.38 C
116 26-02-2021 09:35:00 6.8 C 90 % 5.28 C
117 26-02-2021 09:40:00 6.7 C 90 % 5.18 C
118 26-02-2021 09:45:00 6.6 C 90 % 5.08 C
119 26-02-2021 09:50:00 6.6 C 90 % 5.08 C
120 26-02-2021 09:55:00 6.6 C 91 % 5.24 C
121 26-02-2021 10:00:00 6.6 C 91 % 5.24 C
122 26-02-2021 10:05:00 6.6 C 91 % 5.24 C
123 26-02-2021 10:10:00 6.6 C 92 % 5.4 C
124 26-02-2021 10:15:00 6.6 C 92 % 5.4 C
125 26-02-2021 10:20:00 6.6 C 92 % 5.4 C
Sensor: Nr:Datum:Temp:Feuchte:Taupunkt:
Aussen-T/F 126 26-02-2021 10:25:00 6.6 C 92 % 5.4 C
127 26-02-2021 10:30:00 6.6 C 92 % 5.4 C
128 26-02-2021 10:35:00 6.6 C 92 % 5.4 C
129 26-02-2021 10:40:00 6.7 C 92 % 5.49 C
130 26-02-2021 10:45:00 6.7 C 93 % 5.65 C
131 26-02-2021 10:50:00 6.7 C 93 % 5.65 C
132 26-02-2021 10:55:00 6.7 C 93 % 5.65 C
133 26-02-2021 11:00:00 6.8 C 93 % 5.75 C
134 26-02-2021 11:05:00 6.8 C 93 % 5.75 C
135 26-02-2021 11:10:00 6.8 C 93 % 5.75 C
136 26-02-2021 11:15:00 6.8 C 93 % 5.75 C
137 26-02-2021 11:20:00 6.8 C 93 % 5.75 C
138 26-02-2021 11:25:00 6.8 C 92 % 5.59 C
139 26-02-2021 11:30:00 6.8 C 93 % 5.75 C
140 26-02-2021 11:35:00 6.8 C 93 % 5.75 C
141 26-02-2021 11:40:00 6.8 C 93 % 5.75 C
142 26-02-2021 11:45:00 6.8 C 93 % 5.75 C
143 26-02-2021 11:50:00 6.8 C 93 % 5.75 C
144 26-02-2021 11:55:00 6.9 C 93 % 5.85 C
145 26-02-2021 12:00:00 6.8 C 93 % 5.75 C
146 26-02-2021 12:05:00 6.8 C 93 % 5.75 C
147 26-02-2021 12:10:00 6.8 C 93 % 5.75 C
148 26-02-2021 12:15:00 6.8 C 93 % 5.75 C
149 26-02-2021 12:20:00 6.9 C 93 % 5.85 C
150 26-02-2021 12:25:00 7.1 C 94 % 6.2 C
Sensor: Nr:Datum:Temp:Feuchte:Taupunkt:
Aussen-T/F 151 26-02-2021 12:30:00 7.2 C 94 % 6.3 C
152 26-02-2021 12:35:00 7.2 C 93 % 6.15 C
153 26-02-2021 12:40:00 7.3 C 94 % 6.4 C
154 26-02-2021 12:45:00 7.2 C 93 % 6.15 C
155 26-02-2021 12:50:00 7.1 C 93 % 6.05 C
156 26-02-2021 12:55:00 7.1 C 92 % 5.89 C
157 26-02-2021 13:00:00 7 C 92 % 5.79 C
158 26-02-2021 13:05:00 7 C 92 % 5.79 C
159 26-02-2021 13:10:00 7.1 C 92 % 5.89 C
160 26-02-2021 13:15:00 7.2 C 92 % 5.99 C
161 26-02-2021 13:20:00 7.3 C 93 % 6.25 C
162 26-02-2021 13:25:00 7.4 C 92 % 6.19 C
163 26-02-2021 13:30:00 7.6 C 92 % 6.39 C
164 26-02-2021 13:35:00 7.8 C 92 % 6.58 C
165 26-02-2021 13:40:00 7.8 C 91 % 6.43 C
166 26-02-2021 13:45:00 7.9 C 92 % 6.68 C
167 26-02-2021 13:50:00 8 C 92 % 6.78 C
168 26-02-2021 13:55:00 8 C 90 % 6.46 C
169 26-02-2021 14:00:00 8 C 90 % 6.46 C
170 26-02-2021 14:05:00 8 C 89 % 6.3 C
171 26-02-2021 14:10:00 8.1 C 89 % 6.4 C
172 26-02-2021 14:15:00 8.2 C 90 % 6.66 C
173 26-02-2021 14:20:00 8.3 C 90 % 6.76 C
174 26-02-2021 14:25:00 8.4 C 89 % 6.7 C
175 26-02-2021 14:30:00 8.4 C 88 % 6.53 C
Sensor: Nr:Datum:Temp:Feuchte:Taupunkt:
Aussen-T/F 176 26-02-2021 14:35:00 8.6 C 89 % 6.89 C
177 26-02-2021 14:40:00 8.7 C 89 % 6.99 C
178 26-02-2021 14:45:00 8.8 C 89 % 7.09 C
179 26-02-2021 14:50:00 8.9 C 89 % 7.19 C
180 26-02-2021 14:55:00 8.9 C 89 % 7.19 C
181 26-02-2021 15:00:00 8.9 C 88 % 7.02 C
182 26-02-2021 15:05:00 8.8 C 88 % 6.93 C
183 26-02-2021 15:10:00 8.7 C 89 % 6.99 C
184 26-02-2021 15:15:00 8.7 C 89 % 6.99 C
185 26-02-2021 15:20:00 8.7 C 89 % 6.99 C
186 26-02-2021 15:25:00 8.7 C 89 % 6.99 C
187 26-02-2021 15:30:00 8.7 C 89 % 6.99 C
188 26-02-2021 15:35:00 8.8 C 89 % 7.09 C
189 26-02-2021 15:40:00 8.8 C 89 % 7.09 C
190 26-02-2021 15:45:00 8.8 C 89 % 7.09 C
191 26-02-2021 15:50:00 8.8 C 89 % 7.09 C
192 26-02-2021 15:55:00 8.8 C 88 % 6.93 C
193 26-02-2021 16:00:00 8.8 C 88 % 6.93 C
194 26-02-2021 16:05:00 8.8 C 88 % 6.93 C
195 26-02-2021 16:10:00 8.9 C 87 % 6.86 C
196 26-02-2021 16:15:00 9.1 C 86 % 6.89 C
197 26-02-2021 16:20:00 9.1 C 83 % 6.37 C
198 26-02-2021 16:25:00 9.3 C 82 % 6.39 C
199 26-02-2021 16:30:00 9.3 C 80 % 6.03 C
200 26-02-2021 16:35:00 9.5 C 79 % 6.05 C
Sensor: Nr:Datum:Temp:Feuchte:Taupunkt:
Aussen-T/F 201 26-02-2021 16:40:00 9.5 C 77 % 5.68 C
202 26-02-2021 16:45:00 9.6 C 77 % 5.77 C
203 26-02-2021 16:50:00 9.8 C 76 % 5.78 C
204 26-02-2021 16:55:00 9.8 C 76 % 5.78 C
205 26-02-2021 17:00:00 10 C 78 % 6.35 C
206 26-02-2021 17:05:00 9.9 C 75 % 5.68 C
207 26-02-2021 17:10:00 9.9 C 77 % 6.06 C
208 26-02-2021 17:15:00 9.8 C 76 % 5.78 C
209 26-02-2021 17:20:00 9.6 C 75 % 5.39 C
210 26-02-2021 17:25:00 9.5 C 74 % 5.1 C
211 26-02-2021 17:30:00 9.3 C 73 % 4.72 C
212 26-02-2021 17:35:00 9.1 C 70 % 3.93 C
213 26-02-2021 17:40:00 9 C 75 % 4.81 C
214 26-02-2021 17:45:00 8.8 C 73 % 4.24 C
215 26-02-2021 17:50:00 8.7 C 72 % 3.94 C
216 26-02-2021 17:55:00 8.6 C 73 % 4.04 C
217 26-02-2021 18:00:00 8.4 C 75 % 4.23 C
218 26-02-2021 18:05:00 8.2 C 74 % 3.85 C
219 26-02-2021 18:10:00 8.1 C 75 % 3.94 C
220 26-02-2021 18:15:00 7.8 C 76 % 3.84 C
221 26-02-2021 18:20:00 7.4 C 76 % 3.45 C
222 26-02-2021 18:25:00 7.3 C 76 % 3.36 C
223 26-02-2021 18:30:00 7.1 C 77 % 3.35 C
224 26-02-2021 18:35:00 7.1 C 78 % 3.53 C
225 26-02-2021 18:40:00 7 C 79 % 3.61 C
Sensor: Nr:Datum:Temp:Feuchte:Taupunkt:
Aussen-T/F 226 26-02-2021 18:45:00 6.9 C 80 % 3.7 C
227 26-02-2021 18:50:00 6.9 C 81 % 3.87 C
228 26-02-2021 18:55:00 6.8 C 81 % 3.77 C
229 26-02-2021 19:00:00 6.8 C 82 % 3.95 C
230 26-02-2021 19:05:00 6.8 C 82 % 3.95 C
231 26-02-2021 19:10:00 6.7 C 81 % 3.68 C
232 26-02-2021 19:15:00 6.6 C 81 % 3.58 C
233 26-02-2021 19:20:00 6.6 C 82 % 3.75 C
234 26-02-2021 19:25:00 6.5 C 83 % 3.83 C
235 26-02-2021 19:30:00 6.5 C 84 % 4 C
236 26-02-2021 19:35:00 6.4 C 83 % 3.73 C
237 26-02-2021 19:40:00 6.3 C 83 % 3.63 C
238 26-02-2021 19:45:00 6.3 C 83 % 3.63 C
239 26-02-2021 19:50:00 6.3 C 85 % 3.97 C
240 26-02-2021 19:55:00 6.3 C 85 % 3.97 C
241 26-02-2021 20:00:00 6.3 C 86 % 4.14 C
242 26-02-2021 20:05:00 6.3 C 86 % 4.14 C
243 26-02-2021 20:10:00 6.3 C 86 % 4.14 C
244 26-02-2021 20:15:00 6.2 C 86 % 4.04 C
245 26-02-2021 20:20:00 6.2 C 86 % 4.04 C
246 26-02-2021 20:25:00 6.2 C 87 % 4.2 C
247 26-02-2021 20:30:00 6.2 C 87 % 4.2 C
248 26-02-2021 20:35:00 6.2 C 87 % 4.2 C
249 26-02-2021 20:40:00 6.2 C 87 % 4.2 C
250 26-02-2021 20:45:00 6.2 C 88 % 4.36 C
Sensor: Nr:Datum:Temp:Feuchte:Taupunkt:
Aussen-T/F 251 26-02-2021 20:50:00 6.2 C 88 % 4.36 C
252 26-02-2021 20:55:00 6.2 C 88 % 4.36 C
253 26-02-2021 21:00:00 6.1 C 88 % 4.27 C
254 26-02-2021 21:05:00 6.1 C 87 % 4.1 C
255 26-02-2021 21:10:00 6.1 C 87 % 4.1 C
256 26-02-2021 21:15:00 5.9 C 87 % 3.91 C
257 26-02-2021 21:20:00 5.8 C 87 % 3.81 C
258 26-02-2021 21:25:00 5.7 C 87 % 3.71 C
259 26-02-2021 21:30:00 5.4 C 87 % 3.41 C
260 26-02-2021 21:35:00 5.3 C 87 % 3.32 C
261 26-02-2021 21:40:00 5.1 C 87 % 3.12 C
262 26-02-2021 21:45:00 4.9 C 87 % 2.92 C
263 26-02-2021 21:50:00 4.7 C 88 % 2.89 C
264 26-02-2021 21:55:00 4.6 C 88 % 2.79 C
265 26-02-2021 22:00:00 4.5 C 89 % 2.85 C
266 26-02-2021 22:05:00 4.4 C 89 % 2.75 C
267 26-02-2021 22:10:00 4.2 C 89 % 2.55 C
268 26-02-2021 22:15:00 4.1 C 89 % 2.45 C
269 26-02-2021 22:20:00 3.9 C 89 % 2.26 C
270 26-02-2021 22:25:00 3.8 C 89 % 2.16 C
271 26-02-2021 22:30:00 3.6 C 89 % 1.96 C
272 26-02-2021 22:35:00 3.4 C 90 % 1.92 C
273 26-02-2021 22:40:00 3.3 C 90 % 1.82 C
274 26-02-2021 22:45:00 3.2 C 90 % 1.72 C
275 26-02-2021 22:50:00 3.2 C 91 % 1.88 C
Sensor: Nr:Datum:Temp:Feuchte:Taupunkt:
Aussen-T/F 276 26-02-2021 22:55:00 3.2 C 91 % 1.88 C
277 26-02-2021 23:00:00 3.2 C 91 % 1.88 C
278 26-02-2021 23:05:00 3.1 C 91 % 1.78 C
279 26-02-2021 23:10:00 2.9 C 91 % 1.58 C
280 26-02-2021 23:15:00 2.8 C 91 % 1.48 C
281 26-02-2021 23:20:00 2.6 C 91 % 1.28 C
282 26-02-2021 23:25:00 2.5 C 91 % 1.18 C
283 26-02-2021 23:30:00 2.4 C 91 % 1.08 C
284 26-02-2021 23:35:00 2.4 C 92 % 1.24 C
285 26-02-2021 23:40:00 2.3 C 92 % 1.14 C
286 26-02-2021 23:45:00 2.2 C 92 % 1.04 C
287 26-02-2021 23:50:00 2.2 C 92 % 1.04 C
288 26-02-2021 23:55:00 2.1 C 92 % 0.94 C
289 27-02-2021 00:00:00 2 C 92 % 0.84 C
290 27-02-2021 00:05:00 1.9 C 93 % 0.89 C
291 27-02-2021 00:10:00 1.9 C 93 % 0.89 C
292 27-02-2021 00:15:00 1.9 C 93 % 0.89 C
293 27-02-2021 00:20:00 1.8 C 93 % 0.79 C
294 27-02-2021 00:25:00 1.8 C 93 % 0.79 C
295 27-02-2021 00:30:00 1.7 C 93 % 0.69 C
296 27-02-2021 00:35:00 1.7 C 93 % 0.69 C
297 27-02-2021 00:40:00 1.7 C 93 % 0.69 C
298 27-02-2021 00:45:00 1.7 C 94 % 0.84 C
299 27-02-2021 00:50:00 1.7 C 94 % 0.84 C
300 27-02-2021 00:55:00 1.7 C 94 % 0.84 C
Sensor: Nr:Datum:Temp:Feuchte:Taupunkt:
Aussen-T/F 301 27-02-2021 01:00:00 1.7 C 94 % 0.84 C
302 27-02-2021 01:05:00 1.6 C 94 % 0.74 C
303 27-02-2021 01:10:00 1.6 C 94 % 0.74 C
304 27-02-2021 01:15:00 1.5 C 94 % 0.64 C
305 27-02-2021 01:20:00 1.4 C 94 % 0.54 C
306 27-02-2021 01:25:00 1.4 C 94 % 0.54 C
307 27-02-2021 01:30:00 1.3 C 94 % 0.44 C
308 27-02-2021 01:35:00 1.3 C 94 % 0.44 C
309 27-02-2021 01:40:00 1.3 C 94 % 0.44 C
310 27-02-2021 01:45:00 1.2 C 94 % 0.34 C
311 27-02-2021 01:50:00 1.2 C 94 % 0.34 C
312 27-02-2021 01:55:00 1.1 C 94 % 0.24 C
313 27-02-2021 02:00:00 1.1 C 94 % 0.24 C
314 27-02-2021 02:05:00 1 C 94 % 0.15 C
315 27-02-2021 02:10:00 0.9 C 94 % 0.05 C
316 27-02-2021 02:15:00 0.9 C 94 % 0.05 C
317 27-02-2021 02:20:00 0.9 C 94 % 0.05 C
318 27-02-2021 02:25:00 0.9 C 94 % 0.05 C
319 27-02-2021 02:30:00 0.9 C 94 % 0.05 C
320 27-02-2021 02:35:00 0.8 C 94 % -0.05 C
321 27-02-2021 02:40:00 0.8 C 94 % -0.05 C
322 27-02-2021 02:45:00 0.7 C 94 % -0.15 C
323 27-02-2021 02:50:00 0.7 C 94 % -0.15 C
324 27-02-2021 02:55:00 0.7 C 94 % -0.15 C
325 27-02-2021 03:00:00 0.7 C 95 % -0.01 C
Sensor: Nr:Datum:Temp:Feuchte:Taupunkt:
Aussen-T/F 326 27-02-2021 03:05:00 0.7 C 95 % -0.01 C
327 27-02-2021 03:10:00 0.7 C 95 % -0.01 C
328 27-02-2021 03:15:00 0.6 C 95 % -0.11 C
329 27-02-2021 03:20:00 0.6 C 94 % -0.25 C
330 27-02-2021 03:25:00 0.5 C 94 % -0.35 C
331 27-02-2021 03:30:00 0.4 C 94 % -0.45 C
332 27-02-2021 03:35:00 0.3 C 94 % -0.55 C
333 27-02-2021 03:40:00 0.3 C 95 % -0.4 C
334 27-02-2021 03:45:00 0.3 C 95 % -0.4 C
335 27-02-2021 03:50:00 0.3 C 95 % -0.4 C
336 27-02-2021 03:55:00 0.2 C 95 % -0.5 C
337 27-02-2021 04:00:00 0.2 C 95 % -0.5 C
338 27-02-2021 04:05:00 0.2 C 95 % -0.5 C
339 27-02-2021 04:10:00 0.1 C 95 % -0.6 C
340 27-02-2021 04:15:00 0.1 C 95 % -0.6 C
341 27-02-2021 04:20:00 0.1 C 95 % -0.6 C
342 27-02-2021 04:25:00 0.1 C 95 % -0.6 C
343 27-02-2021 04:30:00 0.1 C 95 % -0.6 C
344 27-02-2021 04:35:00 0 C 95 % -0.7 C
345 27-02-2021 04:40:00 -0.1 C 95 % -0.8 C
346 27-02-2021 04:45:00 -0.1 C 95 % -0.8 C
347 27-02-2021 04:50:00 -0.1 C 95 % -0.8 C
348 27-02-2021 04:55:00 -0.1 C 95 % -0.8 C
349 27-02-2021 05:00:00 0 C 95 % -0.7 C
350 27-02-2021 05:05:00 -0.1 C 95 % -0.8 C
Sensor: Nr:Datum:Temp:Feuchte:Taupunkt:
Aussen-T/F 351 27-02-2021 05:10:00 -0.1 C 95 % -0.8 C
352 27-02-2021 05:15:00 -0.1 C 95 % -0.8 C
353 27-02-2021 05:20:00 -0.1 C 95 % -0.8 C
354 27-02-2021 05:25:00 -0.2 C 95 % -0.9 C
355 27-02-2021 05:30:00 -0.2 C 95 % -0.9 C
356 27-02-2021 05:35:00 -0.2 C 95 % -0.9 C
357 27-02-2021 05:40:00 -0.2 C 95 % -0.9 C
358 27-02-2021 05:45:00 -0.3 C 95 % -1 C
359 27-02-2021 05:50:00 -0.3 C 95 % -1 C
360 27-02-2021 05:55:00 -0.3 C 95 % -1 C
361 27-02-2021 06:00:00 -0.3 C 95 % -1 C
362 27-02-2021 06:05:00 -0.3 C 95 % -1 C
363 27-02-2021 06:10:00 -0.3 C 95 % -1 C
364 27-02-2021 06:15:00 -0.3 C 95 % -1 C
365 27-02-2021 06:20:00 -0.3 C 95 % -1 C
366 27-02-2021 06:25:00 -0.4 C 95 % -1.1 C
367 27-02-2021 06:30:00 -0.4 C 95 % -1.1 C
368 27-02-2021 06:35:00 -0.4 C 95 % -1.1 C
369 27-02-2021 06:40:00 -0.5 C 95 % -1.2 C
370 27-02-2021 06:45:00 -0.5 C 95 % -1.2 C
371 27-02-2021 06:50:00 -0.6 C 95 % -1.3 C
372 27-02-2021 06:55:00 -0.6 C 95 % -1.3 C
373 27-02-2021 07:00:00 -0.6 C 95 % -1.3 C
374 27-02-2021 07:05:00 -0.6 C 95 % -1.3 C
375 27-02-2021 07:10:00 -0.6 C 95 % -1.3 C
Sensor: Nr:Datum:Temp:Feuchte:Taupunkt:
Aussen-T/F 376 27-02-2021 07:15:00 -0.5 C 95 % -1.2 C
377 27-02-2021 07:20:00 -0.4 C 95 % -1.1 C
378 27-02-2021 07:25:00 -0.3 C 96 % -0.86 C
379 27-02-2021 07:30:00 -0.2 C 96 % -0.76 C
380 27-02-2021 07:35:00 -0.1 C 96 % -0.66 C
381 27-02-2021 07:40:00 0 C 96 % -0.56 C
382 27-02-2021 07:45:00 0.2 C 96 % -0.36 C
383 27-02-2021 07:50:00 0.3 C 96 % -0.26 C
384 27-02-2021 07:55:00 0.5 C 96 % -0.06 C
385 27-02-2021 08:00:00 0.7 C 96 % 0.14 C
386 27-02-2021 08:05:00 0.7 C 96 % 0.14 C
387 27-02-2021 08:10:00 0.8 C 96 % 0.24 C
388 27-02-2021 08:15:00 0.9 C 96 % 0.34 C
389 27-02-2021 08:20:00 1 C 96 % 0.44 C
390 27-02-2021 08:25:00 1.2 C 96 % 0.63 C
391 27-02-2021 08:30:00 1.3 C 96 % 0.73 C
392 27-02-2021 08:35:00 1.4 C 96 % 0.83 C
393 27-02-2021 08:40:00 1.6 C 97 % 1.18 C
394 27-02-2021 08:45:00 1.7 C 96 % 1.13 C
395 27-02-2021 08:50:00 1.8 C 97 % 1.38 C
396 27-02-2021 08:55:00 1.9 C 97 % 1.48 C
397 27-02-2021 09:00:00 2 C 96 % 1.43 C
398 27-02-2021 09:05:00 2.1 C 96 % 1.53 C
399 27-02-2021 09:10:00 2.2 C 97 % 1.77 C
400 27-02-2021 09:15:00 2.2 C 97 % 1.77 C
Sensor: Nr:Datum:Temp:Feuchte:Taupunkt:
Aussen-T/F 401 27-02-2021 09:20:00 2.3 C 96 % 1.73 C
402 27-02-2021 09:25:00 2.3 C 96 % 1.73 C
403 27-02-2021 09:30:00 2.3 C 96 % 1.73 C
404 27-02-2021 09:35:00 2.4 C 97 % 1.97 C
405 27-02-2021 09:40:00 2.5 C 96 % 1.93 C
406 27-02-2021 09:45:00 2.6 C 96 % 2.03 C
407 27-02-2021 09:50:00 2.7 C 96 % 2.13 C
408 27-02-2021 09:55:00 2.7 C 97 % 2.27 C
409 27-02-2021 10:00:00 2.8 C 96 % 2.23 C
410 27-02-2021 10:05:00 2.8 C 96 % 2.23 C
411 27-02-2021 10:10:00 2.8 C 96 % 2.23 C
412 27-02-2021 10:15:00 2.8 C 96 % 2.23 C
413 27-02-2021 10:20:00 2.9 C 96 % 2.33 C
414 27-02-2021 10:25:00 3 C 96 % 2.43 C
415 27-02-2021 10:30:00 3.1 C 96 % 2.53 C
416 27-02-2021 10:35:00 3.1 C 96 % 2.53 C
417 27-02-2021 10:40:00 3.2 C 96 % 2.63 C
418 27-02-2021 10:45:00 3.4 C 96 % 2.82 C
419 27-02-2021 10:50:00 3.6 C 96 % 3.02 C
420 27-02-2021 10:55:00 3.7 C 96 % 3.12 C
421 27-02-2021 11:00:00 3.8 C 96 % 3.22 C
422 27-02-2021 11:05:00 3.9 C 96 % 3.32 C
423 27-02-2021 11:10:00 4 C 96 % 3.42 C
424 27-02-2021 11:15:00 4 C 96 % 3.42 C
425 27-02-2021 11:20:00 4.1 C 96 % 3.52 C
Sensor: Nr:Datum:Temp:Feuchte:Taupunkt:
Aussen-T/F 426 27-02-2021 11:25:00 4.3 C 96 % 3.72 C
427 27-02-2021 11:30:00 4.4 C 96 % 3.82 C
428 27-02-2021 11:35:00 4.4 C 94 % 3.52 C
429 27-02-2021 11:40:00 4.6 C 94 % 3.72 C
430 27-02-2021 11:45:00 4.7 C 94 % 3.82 C
431 27-02-2021 11:50:00 4.8 C 93 % 3.77 C
432 27-02-2021 11:55:00 4.8 C 93 % 3.77 C
433 27-02-2021 12:00:00 4.9 C 93 % 3.87 C
434 27-02-2021 12:05:00 5.1 C 93 % 4.06 C
435 27-02-2021 12:10:00 5.2 C 92 % 4.01 C
436 27-02-2021 12:15:00 5.4 C 91 % 4.05 C
437 27-02-2021 12:20:00 5.7 C 91 % 4.35 C
438 27-02-2021 12:25:00 5.9 C 90 % 4.39 C
439 27-02-2021 12:30:00 6.2 C 89 % 4.53 C
440 27-02-2021 12:35:00 6.6 C 89 % 4.92 C
441 27-02-2021 12:40:00 6.8 C 87 % 4.79 C
442 27-02-2021 12:45:00 7.1 C 86 % 4.92 C
443 27-02-2021 12:50:00 7.3 C 85 % 4.95 C
444 27-02-2021 12:55:00 7.6 C 84 % 5.07 C
445 27-02-2021 13:00:00 7.7 C 83 % 5 C
446 27-02-2021 13:05:00 7.9 C 81 % 4.85 C
447 27-02-2021 13:10:00 7.9 C 78 % 4.31 C
448 27-02-2021 13:15:00 8.1 C 79 % 4.68 C
449 27-02-2021 13:20:00 8.3 C 79 % 4.88 C
450 27-02-2021 13:25:00 8.4 C 76 % 4.42 C
Sensor: Nr:Datum:Temp:Feuchte:Taupunkt:
Aussen-T/F 451 27-02-2021 13:30:00 8.3 C 76 % 4.33 C
452 27-02-2021 13:35:00 8.3 C 78 % 4.7 C
453 27-02-2021 13:40:00 8.4 C 77 % 4.61 C
454 27-02-2021 13:45:00 8.6 C 77 % 4.8 C
455 27-02-2021 13:50:00 8.7 C 75 % 4.52 C
456 27-02-2021 13:55:00 8.9 C 74 % 4.53 C
457 27-02-2021 14:00:00 9 C 73 % 4.43 C
458 27-02-2021 14:05:00 9.1 C 74 % 4.72 C
459 27-02-2021 14:10:00 9.2 C 73 % 4.62 C
460 27-02-2021 14:15:00 9.4 C 73 % 4.81 C
461 27-02-2021 14:20:00 9.5 C 71 % 4.51 C
462 27-02-2021 14:25:00 9.6 C 71 % 4.61 C
463 27-02-2021 14:30:00 9.5 C 70 % 4.31 C
464 27-02-2021 14:35:00 9.4 C 71 % 4.42 C
465 27-02-2021 14:40:00 9.4 C 70 % 4.21 C
466 27-02-2021 14:45:00 9.4 C 71 % 4.42 C
467 27-02-2021 14:50:00 9.4 C 70 % 4.21 C
468 27-02-2021 14:55:00 9.4 C 69 % 4.01 C
469 27-02-2021 15:00:00 9.5 C 70 % 4.31 C
470 27-02-2021 15:05:00 9.6 C 69 % 4.2 C
471 27-02-2021 15:10:00 9.7 C 70 % 4.5 C
472 27-02-2021 15:15:00 9.8 C 69 % 4.39 C
473 27-02-2021 15:20:00 9.8 C 67 % 3.97 C
474 27-02-2021 15:25:00 9.7 C 68 % 4.09 C
475 27-02-2021 15:30:00 9.7 C 68 % 4.09 C
Sensor: Nr:Datum:Temp:Feuchte:Taupunkt:
Aussen-T/F 476 27-02-2021 15:35:00 9.8 C 68 % 4.18 C
477 27-02-2021 15:40:00 10.1 C 68 % 4.47 C
478 27-02-2021 15:45:00 10.2 C 67 % 4.36 C
479 27-02-2021 15:50:00 10.2 C 67 % 4.36 C
480 27-02-2021 15:55:00 10.2 C 66 % 4.14 C
481 27-02-2021 16:00:00 10.2 C 66 % 4.14 C
482 27-02-2021 16:05:00 10.3 C 66 % 4.24 C
483 27-02-2021 16:10:00 10.3 C 66 % 4.24 C
484 27-02-2021 16:15:00 10.4 C 65 % 4.11 C
485 27-02-2021 16:20:00 10.6 C 65 % 4.3 C
486 27-02-2021 16:25:00 10.7 C 64 % 4.18 C
487 27-02-2021 16:30:00 10.7 C 64 % 4.18 C
488 27-02-2021 16:35:00 10.7 C 63 % 3.95 C
489 27-02-2021 16:40:00 10.8 C 63 % 4.05 C
490 27-02-2021 16:45:00 10.8 C 63 % 4.05 C
491 27-02-2021 16:50:00 10.8 C 63 % 4.05 C
492 27-02-2021 16:55:00 10.8 C 63 % 4.05 C
493 27-02-2021 17:00:00 10.9 C 63 % 4.14 C
494 27-02-2021 17:05:00 10.9 C 63 % 4.14 C
495 27-02-2021 17:10:00 11.1 C 63 % 4.33 C
496 27-02-2021 17:15:00 11.1 C 63 % 4.33 C
497 27-02-2021 17:20:00 11.1 C 64 % 4.56 C
498 27-02-2021 17:25:00 11.3 C 67 % 5.4 C
499 27-02-2021 17:30:00 11.2 C 66 % 5.09 C
500 27-02-2021 17:35:00 11.1 C 67 % 5.21 C
Sensor: Nr:Datum:Temp:Feuchte:Taupunkt:
Aussen-T/F 501 27-02-2021 17:40:00 10.9 C 68 % 5.23 C
502 27-02-2021 17:45:00 10.7 C 69 % 5.25 C
503 27-02-2021 17:50:00 10.3 C 70 % 5.08 C
504 27-02-2021 17:55:00 9.8 C 71 % 4.8 C
505 27-02-2021 18:00:00 9.3 C 73 % 4.72 C
506 27-02-2021 18:05:00 8.8 C 74 % 4.43 C
507 27-02-2021 18:10:00 8.3 C 76 % 4.33 C
508 27-02-2021 18:15:00 7.9 C 77 % 4.12 C
509 27-02-2021 18:20:00 7.5 C 78 % 3.92 C
510 27-02-2021 18:25:00 7.2 C 79 % 3.81 C
511 27-02-2021 18:30:00 6.8 C 80 % 3.6 C
512 27-02-2021 18:35:00 6.6 C 81 % 3.58 C
513 27-02-2021 18:40:00 6.4 C 82 % 3.56 C
514 27-02-2021 18:45:00 6.2 C 82 % 3.36 C
515 27-02-2021 18:50:00 6.1 C 82 % 3.26 C
516 27-02-2021 18:55:00 5.9 C 83 % 3.24 C
517 27-02-2021 19:00:00 5.7 C 83 % 3.04 C
518 27-02-2021 19:05:00 5.6 C 84 % 3.12 C
519 27-02-2021 19:10:00 5.6 C 85 % 3.28 C
520 27-02-2021 19:15:00 5.4 C 85 % 3.09 C
521 27-02-2021 19:20:00 5.3 C 85 % 2.99 C
522 27-02-2021 19:25:00 5.3 C 85 % 2.99 C
523 27-02-2021 19:30:00 5.2 C 86 % 3.05 C
524 27-02-2021 19:35:00 5.1 C 86 % 2.96 C
525 27-02-2021 19:40:00 5 C 87 % 3.02 C
Sensor: Nr:Datum:Temp:Feuchte:Taupunkt:
Aussen-T/F 526 27-02-2021 19:45:00 4.9 C 87 % 2.92 C
527 27-02-2021 19:50:00 4.8 C 87 % 2.82 C
528 27-02-2021 19:55:00 4.8 C 88 % 2.99 C
529 27-02-2021 20:00:00 4.7 C 88 % 2.89 C
530 27-02-2021 20:05:00 4.6 C 89 % 2.95 C
531 27-02-2021 20:10:00 4.5 C 88 % 2.69 C
532 27-02-2021 20:15:00 4.4 C 89 % 2.75 C
533 27-02-2021 20:20:00 4.3 C 89 % 2.65 C
534 27-02-2021 20:25:00 4.2 C 89 % 2.55 C
535 27-02-2021 20:30:00 4.3 C 90 % 2.81 C
536 27-02-2021 20:35:00 4.5 C 90 % 3.01 C
537 27-02-2021 20:40:00 4.7 C 90 % 3.2 C
538 27-02-2021 20:45:00 4.8 C 89 % 3.14 C
539 27-02-2021 20:50:00 5.1 C 89 % 3.44 C
540 27-02-2021 20:55:00 5.4 C 88 % 3.58 C
541 27-02-2021 21:00:00 5.6 C 87 % 3.61 C
542 27-02-2021 21:05:00 5.7 C 87 % 3.71 C
543 27-02-2021 21:10:00 5.9 C 85 % 3.58 C
544 27-02-2021 21:15:00 5.9 C 85 % 3.58 C
545 27-02-2021 21:20:00 5.9 C 85 % 3.58 C
546 27-02-2021 21:25:00 5.9 C 85 % 3.58 C
547 27-02-2021 21:30:00 5.9 C 85 % 3.58 C
548 27-02-2021 21:35:00 5.9 C 85 % 3.58 C
549 27-02-2021 21:40:00 5.9 C 85 % 3.58 C
550 27-02-2021 21:45:00 5.9 C 85 % 3.58 C
Sensor: Nr:Datum:Temp:Feuchte:Taupunkt:
Aussen-T/F 551 27-02-2021 21:50:00 5.8 C 85 % 3.48 C
552 27-02-2021 21:55:00 5.8 C 85 % 3.48 C
553 27-02-2021 22:00:00 5.9 C 85 % 3.58 C
554 27-02-2021 22:05:00 5.9 C 85 % 3.58 C
555 27-02-2021 22:10:00 5.9 C 84 % 3.41 C
556 27-02-2021 22:15:00 6 C 84 % 3.51 C
557 27-02-2021 22:20:00 6 C 84 % 3.51 C
558 27-02-2021 22:25:00 5.9 C 84 % 3.41 C
559 27-02-2021 22:30:00 5.9 C 83 % 3.24 C
560 27-02-2021 22:35:00 5.9 C 83 % 3.24 C
561 27-02-2021 22:40:00 5.9 C 83 % 3.24 C
562 27-02-2021 22:45:00 5.8 C 83 % 3.14 C
563 27-02-2021 22:50:00 5.8 C 83 % 3.14 C
564 27-02-2021 22:55:00 5.8 C 83 % 3.14 C
565 27-02-2021 23:00:00 5.8 C 83 % 3.14 C
566 27-02-2021 23:05:00 5.8 C 83 % 3.14 C
567 27-02-2021 23:10:00 5.8 C 83 % 3.14 C
568 27-02-2021 23:15:00 5.8 C 83 % 3.14 C
569 27-02-2021 23:20:00 5.8 C 83 % 3.14 C
570 27-02-2021 23:25:00 5.8 C 83 % 3.14 C
571 27-02-2021 23:30:00 5.8 C 83 % 3.14 C
572 27-02-2021 23:35:00 5.8 C 83 % 3.14 C
573 27-02-2021 23:40:00 5.8 C 83 % 3.14 C
574 27-02-2021 23:45:00 5.8 C 82 % 2.97 C
575 27-02-2021 23:50:00 5.8 C 83 % 3.14 C
Sensor: Nr:Datum:Temp:Feuchte:Taupunkt:
Aussen-T/F 576 27-02-2021 23:55:00 5.8 C 83 % 3.14 C
577 28-02-2021 00:00:00 5.8 C 82 % 2.97 C
578 28-02-2021 00:05:00 5.8 C 82 % 2.97 C
579 28-02-2021 00:10:00 5.8 C 81 % 2.8 C
580 28-02-2021 00:15:00 5.8 C 82 % 2.97 C
581 28-02-2021 00:20:00 5.9 C 82 % 3.07 C
582 28-02-2021 00:25:00 5.9 C 82 % 3.07 C
583 28-02-2021 00:30:00 5.9 C 82 % 3.07 C
584 28-02-2021 00:35:00 5.8 C 81 % 2.8 C
585 28-02-2021 00:40:00 5.8 C 81 % 2.8 C
586 28-02-2021 00:45:00 5.8 C 82 % 2.97 C
587 28-02-2021 00:50:00 5.8 C 82 % 2.97 C
588 28-02-2021 00:55:00 5.8 C 81 % 2.8 C
589 28-02-2021 01:00:00 5.8 C 81 % 2.8 C
590 28-02-2021 01:05:00 5.8 C 81 % 2.8 C
591 28-02-2021 01:10:00 5.8 C 81 % 2.8 C
592 28-02-2021 01:15:00 5.8 C 81 % 2.8 C
593 28-02-2021 01:20:00 5.8 C 80 % 2.62 C
594 28-02-2021 01:25:00 5.8 C 81 % 2.8 C
595 28-02-2021 01:30:00 5.8 C 80 % 2.62 C
596 28-02-2021 01:35:00 5.8 C 80 % 2.62 C
597 28-02-2021 01:40:00 5.8 C 80 % 2.62 C
598 28-02-2021 01:45:00 5.9 C 79 % 2.54 C
599 28-02-2021 01:50:00 5.9 C 80 % 2.72 C
600 28-02-2021 01:55:00 5.9 C 80 % 2.72 C
Sensor: Nr:Datum:Temp:Feuchte:Taupunkt:
Aussen-T/F 601 28-02-2021 02:00:00 5.8 C 80 % 2.62 C
602 28-02-2021 02:05:00 5.8 C 80 % 2.62 C
603 28-02-2021 02:10:00 5.8 C 80 % 2.62 C
604 28-02-2021 02:15:00 5.7 C 80 % 2.53 C
605 28-02-2021 02:20:00 5.7 C 80 % 2.53 C
606 28-02-2021 02:25:00 5.7 C 81 % 2.7 C
607 28-02-2021 02:30:00 5.7 C 81 % 2.7 C
608 28-02-2021 02:35:00 5.6 C 81 % 2.6 C
609 28-02-2021 02:40:00 5.6 C 79 % 2.25 C
610 28-02-2021 02:45:00 5.6 C 79 % 2.25 C
611 28-02-2021 02:50:00 5.6 C 80 % 2.43 C
612 28-02-2021 02:55:00 5.6 C 80 % 2.43 C
613 28-02-2021 03:00:00 5.6 C 80 % 2.43 C
614 28-02-2021 03:05:00 5.6 C 79 % 2.25 C
615 28-02-2021 03:10:00 5.5 C 79 % 2.16 C
616 28-02-2021 03:15:00 5.5 C 79 % 2.16 C
617 28-02-2021 03:20:00 5.4 C 79 % 2.06 C
618 28-02-2021 03:25:00 5.4 C 78 % 1.88 C
619 28-02-2021 03:30:00 5.4 C 78 % 1.88 C
620 28-02-2021 03:35:00 5.4 C 77 % 1.7 C
621 28-02-2021 03:40:00 5.4 C 78 % 1.88 C
622 28-02-2021 03:45:00 5.4 C 78 % 1.88 C
623 28-02-2021 03:50:00 5.3 C 78 % 1.78 C
624 28-02-2021 03:55:00 5.3 C 78 % 1.78 C
625 28-02-2021 04:00:00 5.2 C 78 % 1.69 C
Sensor: Nr:Datum:Temp:Feuchte:Taupunkt:
Aussen-T/F 626 28-02-2021 04:05:00 5.2 C 78 % 1.69 C
627 28-02-2021 04:10:00 5.2 C 78 % 1.69 C
628 28-02-2021 04:15:00 5.2 C 79 % 1.86 C
629 28-02-2021 04:20:00 5.1 C 79 % 1.77 C
630 28-02-2021 04:25:00 5.1 C 80 % 1.94 C
631 28-02-2021 04:30:00 5 C 80 % 1.84 C
632 28-02-2021 04:35:00 4.9 C 81 % 1.92 C
633 28-02-2021 04:40:00 4.9 C 80 % 1.75 C
634 28-02-2021 04:45:00 5 C 80 % 1.84 C
635 28-02-2021 04:50:00 5 C 80 % 1.84 C
636 28-02-2021 04:55:00 5 C 80 % 1.84 C
637 28-02-2021 05:00:00 4.9 C 81 % 1.92 C
638 28-02-2021 05:05:00 4.9 C 80 % 1.75 C
639 28-02-2021 05:10:00 4.9 C 80 % 1.75 C
640 28-02-2021 05:15:00 5 C 80 % 1.84 C
641 28-02-2021 05:20:00 5 C 80 % 1.84 C
642 28-02-2021 05:25:00 5 C 80 % 1.84 C
643 28-02-2021 05:30:00 4.9 C 81 % 1.92 C
644 28-02-2021 05:35:00 4.7 C 81 % 1.73 C
645 28-02-2021 05:40:00 4.6 C 81 % 1.63 C
646 28-02-2021 05:45:00 4.5 C 81 % 1.53 C
647 28-02-2021 05:50:00 4.4 C 81 % 1.43 C
648 28-02-2021 05:55:00 4.3 C 82 % 1.51 C
649 28-02-2021 06:00:00 4.3 C 82 % 1.51 C
650 28-02-2021 06:05:00 4.2 C 83 % 1.58 C
Sensor: Nr:Datum:Temp:Feuchte:Taupunkt:
Aussen-T/F 651 28-02-2021 06:10:00 4.1 C 83 % 1.48 C
652 28-02-2021 06:15:00 3.9 C 83 % 1.28 C
653 28-02-2021 06:20:00 3.6 C 83 % 0.99 C
654 28-02-2021 06:25:00 3.3 C 83 % 0.7 C
655 28-02-2021 06:30:00 3.1 C 84 % 0.67 C
656 28-02-2021 06:35:00 2.9 C 84 % 0.47 C
657 28-02-2021 06:40:00 2.7 C 85 % 0.44 C
658 28-02-2021 06:45:00 2.6 C 85 % 0.34 C
659 28-02-2021 06:50:00 2.4 C 85 % 0.14 C
660 28-02-2021 06:55:00 2.3 C 86 % 0.21 C
661 28-02-2021 07:00:00 2.2 C 86 % 0.11 C
662 28-02-2021 07:05:00 2.1 C 87 % 0.17 C
663 28-02-2021 07:10:00 2 C 87 % 0.07 C
664 28-02-2021 07:15:00 1.9 C 88 % 0.13 C
665 28-02-2021 07:20:00 1.8 C 87 % -0.13 C
666 28-02-2021 07:25:00 1.6 C 87 % -0.32 C
667 28-02-2021 07:30:00 1.4 C 88 % -0.36 C
668 28-02-2021 07:35:00 1.3 C 88 % -0.46 C
669 28-02-2021 07:40:00 1.3 C 89 % -0.31 C
670 28-02-2021 07:45:00 1.2 C 89 % -0.41 C
671 28-02-2021 07:50:00 1.1 C 89 % -0.51 C
672 28-02-2021 07:55:00 1.1 C 90 % -0.35 C
673 28-02-2021 08:00:00 1 C 90 % -0.45 C
674 28-02-2021 08:05:00 1 C 90 % -0.45 C
675 28-02-2021 08:10:00 0.9 C 90 % -0.55 C
Sensor: Nr:Datum:Temp:Feuchte:Taupunkt:
Aussen-T/F 676 28-02-2021 08:15:00 0.9 C 91 % -0.4 C
677 28-02-2021 08:20:00 1 C 91 % -0.3 C
678 28-02-2021 08:25:00 1.1 C 91 % -0.2 C
679 28-02-2021 08:30:00 1.1 C 91 % -0.2 C
680 28-02-2021 08:35:00 1.1 C 91 % -0.2 C
681 28-02-2021 08:40:00 1.2 C 92 % 0.05 C
682 28-02-2021 08:45:00 1.2 C 92 % 0.05 C
683 28-02-2021 08:50:00 1.3 C 92 % 0.15 C
684 28-02-2021 08:55:00 1.3 C 92 % 0.15 C
685 28-02-2021 09:00:00 1.3 C 92 % 0.15 C
686 28-02-2021 09:05:00 1.4 C 92 % 0.25 C
687 28-02-2021 09:10:00 1.4 C 92 % 0.25 C
688 28-02-2021 09:15:00 1.5 C 92 % 0.35 C
689 28-02-2021 09:20:00 1.6 C 92 % 0.44 C
690 28-02-2021 09:25:00 1.6 C 92 % 0.44 C
691 28-02-2021 09:30:00 1.7 C 92 % 0.54 C
692 28-02-2021 09:35:00 1.7 C 92 % 0.54 C
693 28-02-2021 09:40:00 1.8 C 92 % 0.64 C
694 28-02-2021 09:45:00 1.9 C 92 % 0.74 C
695 28-02-2021 09:50:00 1.9 C 92 % 0.74 C
696 28-02-2021 09:55:00 2.1 C 92 % 0.94 C
697 28-02-2021 10:00:00 2.2 C 92 % 1.04 C
698 28-02-2021 10:05:00 2.3 C 92 % 1.14 C
699 28-02-2021 10:10:00 2.4 C 92 % 1.24 C
700 28-02-2021 10:15:00 2.7 C 92 % 1.53 C
Sensor: Nr:Datum:Temp:Feuchte:Taupunkt:
Aussen-T/F 701 28-02-2021 10:20:00 3 C 91 % 1.68 C
702 28-02-2021 10:25:00 3.4 C 90 % 1.92 C
703 28-02-2021 10:30:00 3.7 C 89 % 2.06 C
704 28-02-2021 10:35:00 4.1 C 87 % 2.14 C
705 28-02-2021 10:40:00 4.3 C 86 % 2.17 C
706 28-02-2021 10:45:00 4.6 C 85 % 2.3 C
707 28-02-2021 10:50:00 4.8 C 82 % 1.99 C
708 28-02-2021 10:55:00 5.1 C 83 % 2.46 C
709 28-02-2021 11:00:00 5.3 C 80 % 2.14 C
710 28-02-2021 11:05:00 5.7 C 79 % 2.35 C
711 28-02-2021 11:10:00 5.9 C 78 % 2.37 C
712 28-02-2021 11:15:00 6.2 C 76 % 2.29 C
713 28-02-2021 11:20:00 6.4 C 76 % 2.49 C
714 28-02-2021 11:25:00 6.6 C 75 % 2.49 C
715 28-02-2021 11:30:00 6.7 C 75 % 2.59 C
716 28-02-2021 11:35:00 6.9 C 74 % 2.6 C
717 28-02-2021 11:40:00 7.1 C 71 % 2.21 C
718 28-02-2021 11:45:00 7.2 C 71 % 2.3 C
719 28-02-2021 11:50:00 7.3 C 71 % 2.4 C
720 28-02-2021 11:55:00 7.4 C 71 % 2.5 C
721 28-02-2021 12:00:00 7.5 C 69 % 2.19 C
722 28-02-2021 12:05:00 7.7 C 70 % 2.58 C
723 28-02-2021 12:10:00 7.8 C 70 % 2.68 C
724 28-02-2021 12:15:00 7.9 C 68 % 2.37 C
725 28-02-2021 12:20:00 8.2 C 68 % 2.66 C
Sensor: Nr:Datum:Temp:Feuchte:Taupunkt:
Aussen-T/F 726 28-02-2021 12:25:00 8.3 C 68 % 2.75 C
727 28-02-2021 12:30:00 8.6 C 66 % 2.62 C
728 28-02-2021 12:35:00 8.7 C 66 % 2.71 C
729 28-02-2021 12:40:00 8.8 C 65 % 2.59 C
730 28-02-2021 12:45:00 8.8 C 64 % 2.38 C
731 28-02-2021 12:50:00 8.9 C 65 % 2.69 C
732 28-02-2021 12:55:00 8.9 C 65 % 2.69 C
733 28-02-2021 13:00:00 9.1 C 65 % 2.88 C
734 28-02-2021 13:05:00 9.2 C 65 % 2.97 C
735 28-02-2021 13:10:00 9.3 C 64 % 2.85 C
736 28-02-2021 13:15:00 9.5 C 63 % 2.82 C
737 28-02-2021 13:20:00 9.6 C 63 % 2.91 C
738 28-02-2021 13:25:00 9.8 C 63 % 3.1 C
739 28-02-2021 13:30:00 9.9 C 61 % 2.74 C
740 28-02-2021 13:35:00 10.1 C 61 % 2.93 C
741 28-02-2021 13:40:00 10.2 C 60 % 2.79 C
742 28-02-2021 13:45:00 10.4 C 60 % 2.98 C
743 28-02-2021 13:50:00 10.6 C 60 % 3.17 C
744 28-02-2021 13:55:00 10.8 C 59 % 3.12 C
745 28-02-2021 14:00:00 11.1 C 57 % 2.92 C
746 28-02-2021 14:05:00 11.3 C 55 % 2.6 C
747 28-02-2021 14:10:00 11.4 C 55 % 2.69 C
748 28-02-2021 14:15:00 11.5 C 55 % 2.79 C
749 28-02-2021 14:20:00 11.4 C 54 % 2.44 C
750 28-02-2021 14:25:00 11.3 C 53 % 2.08 C
Sensor: Nr:Datum:Temp:Feuchte:Taupunkt:
Aussen-T/F 751 28-02-2021 14:30:00 11.3 C 52 % 1.81 C
752 28-02-2021 14:35:00 11.2 C 52 % 1.72 C
753 28-02-2021 14:40:00 11.3 C 54 % 2.34 C
754 28-02-2021 14:45:00 11.3 C 53 % 2.08 C
755 28-02-2021 14:50:00 11.3 C 52 % 1.81 C
756 28-02-2021 14:55:00 11.3 C 54 % 2.34 C
757 28-02-2021 15:00:00 11.3 C 51 % 1.54 C
758 28-02-2021 15:05:00 11.4 C 51 % 1.64 C
759 28-02-2021 15:10:00 11.4 C 52 % 1.91 C
760 28-02-2021 15:15:00 11.5 C 50 % 1.45 C
761 28-02-2021 15:20:00 11.5 C 51 % 1.73 C
762 28-02-2021 15:25:00 11.5 C 55 % 2.79 C
763 28-02-2021 15:30:00 11.6 C 51 % 1.82 C
764 28-02-2021 15:35:00 11.7 C 51 % 1.91 C
765 28-02-2021 15:40:00 11.8 C 48 % 1.16 C
766 28-02-2021 15:45:00 11.8 C 48 % 1.16 C
767 28-02-2021 15:50:00 12 C 49 % 1.63 C
768 28-02-2021 15:55:00 12.1 C 48 % 1.44 C
769 28-02-2021 16:00:00 12.2 C 49 % 1.82 C
770 28-02-2021 16:05:00 12.3 C 48 % 1.62 C
771 28-02-2021 16:10:00 12.3 C 48 % 1.62 C
772 28-02-2021 16:15:00 12.3 C 47 % 1.33 C
773 28-02-2021 16:20:00 12.4 C 52 % 2.83 C
774 28-02-2021 16:25:00 12.4 C 49 % 2 C
775 28-02-2021 16:30:00 12.4 C 48 % 1.71 C
Sensor: Nr:Datum:Temp:Feuchte:Taupunkt:
Aussen-T/F 776 28-02-2021 16:35:00 12.4 C 49 % 2 C
777 28-02-2021 16:40:00 12.4 C 45 % 0.81 C
778 28-02-2021 16:45:00 12.4 C 44 % 0.5 C
779 28-02-2021 16:50:00 12.4 C 51 % 2.56 C
780 28-02-2021 16:55:00 12.3 C 49 % 1.91 C
781 28-02-2021 17:00:00 12.3 C 50 % 2.19 C
782 28-02-2021 17:05:00 12.4 C 51 % 2.56 C
783 28-02-2021 17:10:00 12.4 C 54 % 3.36 C
784 28-02-2021 17:15:00 12.4 C 55 % 3.62 C
785 28-02-2021 17:20:00 12.5 C 51 % 2.65 C
786 28-02-2021 17:25:00 12.5 C 53 % 3.19 C
787 28-02-2021 17:30:00 12.4 C 56 % 3.88 C
788 28-02-2021 17:35:00 12.2 C 56 % 3.69 C
789 28-02-2021 17:40:00 11.9 C 58 % 3.91 C
790 28-02-2021 17:45:00 11.5 C 58 % 3.54 C
791 28-02-2021 17:50:00 11.1 C 59 % 3.4 C
792 28-02-2021 17:55:00 10.5 C 60 % 3.08 C
793 28-02-2021 18:00:00 9.9 C 62 % 2.97 C
794 28-02-2021 18:05:00 9.4 C 63 % 2.72 C
795 28-02-2021 18:10:00 8.9 C 65 % 2.69 C
796 28-02-2021 18:15:00 8.4 C 66 % 2.43 C
797 28-02-2021 18:20:00 8 C 68 % 2.47 C
798 28-02-2021 18:25:00 7.6 C 69 % 2.29 C
799 28-02-2021 18:30:00 7.3 C 70 % 2.2 C
800 28-02-2021 18:35:00 7.1 C 71 % 2.21 C
Sensor: Nr:Datum:Temp:Feuchte:Taupunkt:
Aussen-T/F 801 28-02-2021 18:40:00 6.8 C 72 % 2.12 C
802 28-02-2021 18:45:00 6.6 C 72 % 1.92 C
803 28-02-2021 18:50:00 6.4 C 73 % 1.92 C
804 28-02-2021 18:55:00 6.3 C 74 % 2.02 C
805 28-02-2021 19:00:00 6.2 C 74 % 1.92 C
806 28-02-2021 19:05:00 6 C 75 % 1.91 C
807 28-02-2021 19:10:00 5.9 C 75 % 1.82 C
808 28-02-2021 19:15:00 5.8 C 76 % 1.91 C
809 28-02-2021 19:20:00 5.7 C 76 % 1.81 C
810 28-02-2021 19:25:00 5.6 C 77 % 1.89 C
811 28-02-2021 19:30:00 5.5 C 77 % 1.8 C
812 28-02-2021 19:35:00 5.4 C 78 % 1.88 C
813 28-02-2021 19:40:00 5.3 C 78 % 1.78 C
814 28-02-2021 19:45:00 5.2 C 79 % 1.86 C
815 28-02-2021 19:50:00 5.2 C 79 % 1.86 C
816 28-02-2021 19:55:00 5.1 C 80 % 1.94 C
817 28-02-2021 20:00:00 4.9 C 80 % 1.75 C
818 28-02-2021 20:05:00 4.8 C 81 % 1.82 C
819 28-02-2021 20:10:00 4.8 C 81 % 1.82 C
820 28-02-2021 20:15:00 4.7 C 81 % 1.73 C
821 28-02-2021 20:20:00 4.6 C 82 % 1.8 C
822 28-02-2021 20:25:00 4.5 C 82 % 1.7 C
823 28-02-2021 20:30:00 4.4 C 82 % 1.6 C
824 28-02-2021 20:35:00 4.3 C 83 % 1.67 C
825 28-02-2021 20:40:00 4.2 C 83 % 1.58 C
Sensor: Nr:Datum:Temp:Feuchte:Taupunkt:
Aussen-T/F 826 28-02-2021 20:45:00 4.1 C 83 % 1.48 C
827 28-02-2021 20:50:00 4 C 84 % 1.55 C
828 28-02-2021 20:55:00 3.8 C 84 % 1.35 C
829 28-02-2021 21:00:00 3.8 C 84 % 1.35 C
830 28-02-2021 21:05:00 3.6 C 84 % 1.16 C
831 28-02-2021 21:10:00 3.4 C 84 % 0.96 C
832 28-02-2021 21:15:00 3.3 C 85 % 1.03 C
833 28-02-2021 21:20:00 3.2 C 85 % 0.93 C
834 28-02-2021 21:25:00 3.1 C 86 % 0.99 C
835 28-02-2021 21:30:00 2.9 C 87 % 0.96 C
836 28-02-2021 21:35:00 2.9 C 87 % 0.96 C
837 28-02-2021 21:40:00 2.9 C 88 % 1.11 C
838 28-02-2021 21:45:00 2.9 C 88 % 1.11 C
839 28-02-2021 21:50:00 2.9 C 88 % 1.11 C
840 28-02-2021 21:55:00 2.8 C 88 % 1.02 C
841 28-02-2021 22:00:00 2.7 C 88 % 0.92 C
842 28-02-2021 22:05:00 2.6 C 88 % 0.82 C
843 28-02-2021 22:10:00 2.6 C 89 % 0.97 C
844 28-02-2021 22:15:00 2.5 C 89 % 0.88 C
845 28-02-2021 22:20:00 2.4 C 89 % 0.78 C
846 28-02-2021 22:25:00 2.3 C 89 % 0.68 C
847 28-02-2021 22:30:00 2.3 C 89 % 0.68 C
848 28-02-2021 22:35:00 2.1 C 89 % 0.48 C
849 28-02-2021 22:40:00 2.1 C 89 % 0.48 C
850 28-02-2021 22:45:00 2 C 89 % 0.38 C
Sensor: Nr:Datum:Temp:Feuchte:Taupunkt:
Aussen-T/F 851 28-02-2021 22:50:00 1.9 C 89 % 0.28 C
852 28-02-2021 22:55:00 1.8 C 89 % 0.19 C
853 28-02-2021 23:00:00 1.7 C 90 % 0.24 C
854 28-02-2021 23:05:00 1.6 C 90 % 0.14 C
855 28-02-2021 23:10:00 1.4 C 90 % -0.06 C
856 28-02-2021 23:15:00 1.3 C 90 % -0.15 C
857 28-02-2021 23:20:00 1.3 C 90 % -0.15 C
858 28-02-2021 23:25:00 1.2 C 91 % -0.1 C
859 28-02-2021 23:30:00 1.2 C 91 % -0.1 C
860 28-02-2021 23:35:00 1.1 C 91 % -0.2 C
861 28-02-2021 23:40:00 1.1 C 91 % -0.2 C
862 28-02-2021 23:45:00 1 C 91 % -0.3 C
863 28-02-2021 23:50:00 1 C 91 % -0.3 C
864 28-02-2021 23:55:00 1 C 92 % -0.15 C

Legende:
   Min
   Max


Maximal/Minimal-Werte vom 26.02.2021 - 28.02.2021

Sensor Min Max Avg
Temp
(Aussen-T/F)
-0.6 °C
27-02-2021  06:50:00
12.5 °C
28-02-2021  17:20:00
5.74 °C
Feuchte
(Aussen-T/F)
44 %
28-02-2021  16:45:00
97 %
27-02-2021  08:40:00
83.62 %
Taupunkt
(Aussen-T/F)
-1.3 C
27-02-2021  06:50:00
7.47 C
26-02-2021  06:50:00
3 C

Die Daten stammen von einer Davis Vantage Pro 2 Wetter-Station und werden unter Linux mit der Software wview2wettercgi und aufbereitet. Alle Angaben erfolgen ohne Gewähr für ihre Vollständigkeit oder Richtigkeit.
Kontakt: Rainer Krienke krienke@uni-koblenz.de . Meine Webseiten an der Uni Koblenz oder privat.
Version: $Revision: 0.78 $